RYR6826 LZIB-EPGD

Flight info

Callsign RYR6826
Flight time 1h 6m
Altitude 35000
Route BERVA P10 MAVOR DCT UPLAV DCT BIBKA/N0434F360 N133 GRUDA Z95 OSLOG
Aircraft B738/M-SDE3FGIJ1LRWY/SB1

Departure

Time 2026-04-27 09:02
Airport M. R. Štefánik Airport (LZIB)

Arrival

Time 2026-04-27 10:09
Airport Gdańsk Lech Wałęsa Airport (EPGD)
Time Latitude Longitude Altitude Speed Heading
2026-04-27 08:42 48.16828 17.19964 424 ft 0 kts 314°
2026-04-27 08:55 48.16813 17.19988 424 ft 4 kts 314°
2026-04-27 08:55 48.16793 17.20013 433 ft 4 kts 342°
2026-04-27 08:56 48.16780 17.20014 425 ft 0 kts 44°
2026-04-27 08:59 48.16787 17.20024 431 ft 3 kts 44°
2026-04-27 08:59 48.16816 17.20065 436 ft 8 kts 44°
2026-04-27 08:59 48.16839 17.20143 439 ft 9 kts 99°
2026-04-27 09:00 48.16800 17.20228 433 ft 12 kts 133°
2026-04-27 09:00 48.16727 17.20334 427 ft 18 kts 143°
2026-04-27 09:00 48.16621 17.20262 420 ft 19 kts 221°
2026-04-27 09:00 48.16516 17.20128 427 ft 20 kts 221°
2026-04-27 09:01 48.16411 17.20001 417 ft 17 kts 215°
2026-04-27 09:01 48.16324 17.19886 423 ft 17 kts 222°
2026-04-27 09:01 48.16211 17.19792 434 ft 21 kts 172°
2026-04-27 09:01 48.16104 17.19943 430 ft 19 kts 96°
2026-04-27 09:02 48.16250 17.20190 430 ft 61 kts 44°
2026-04-27 09:02 48.16723 17.20870 432 ft 125 kts 44°
2026-04-27 09:02 48.17477 17.21943 551 ft 165 kts 45°
2026-04-27 09:02 48.18293 17.23100 1343 ft 160 kts 47°
2026-04-27 09:03 48.19118 17.24305 1928 ft 176 kts 47°
2026-04-27 09:03 48.20072 17.25688 2179 ft 203 kts 46°
2026-04-27 09:03 48.21136 17.27226 2395 ft 228 kts 46°
2026-04-27 09:03 48.22384 17.28914 2647 ft 253 kts 38°
2026-04-27 09:04 48.23853 17.30442 3345 ft 260 kts 35°
2026-04-27 09:04 48.25359 17.31966 4107 ft 263 kts 34°
2026-04-27 09:04 48.26881 17.33535 4885 ft 267 kts 34°
2026-04-27 09:04 48.28412 17.35134 5642 ft 269 kts 34°
2026-04-27 09:05 48.29960 17.36749 6425 ft 272 kts 31°
2026-04-27 09:05 48.31602 17.38162 7161 ft 273 kts 18°
2026-04-27 09:05 48.33438 17.38855 7939 ft 272 kts
2026-04-27 09:05 48.35310 17.39376 8752 ft 275 kts
2026-04-27 09:06 48.37200 17.39900 9570 ft 277 kts
2026-04-27 09:06 48.39103 17.40440 10360 ft 282 kts
2026-04-27 09:06 48.41115 17.41021 10589 ft 307 kts
2026-04-27 09:06 48.43279 17.41659 10912 ft 325 kts
2026-04-27 09:07 48.45524 17.42340 11554 ft 332 kts
2026-04-27 09:07 48.47796 17.43040 12328 ft 334 kts
2026-04-27 09:07 48.50088 17.43752 13120 ft 338 kts
2026-04-27 09:07 48.52403 17.44473 13926 ft 342 kts
2026-04-27 09:08 48.54745 17.45204 14683 ft 346 kts
2026-04-27 09:08 48.57112 17.45942 15427 ft 349 kts
2026-04-27 09:08 48.59506 17.46691 16178 ft 353 kts
2026-04-27 09:08 48.61923 17.47450 16945 ft 356 kts
2026-04-27 09:09 48.64366 17.48216 17702 ft 360 kts
2026-04-27 09:09 48.66834 17.48990 18444 ft 364 kts
2026-04-27 09:09 48.69325 17.49773 19094 ft 368 kts
2026-04-27 09:09 48.71842 17.50564 19763 ft 371 kts
2026-04-27 09:10 48.74373 17.51361 20425 ft 373 kts
2026-04-27 09:10 48.76929 17.52149 21064 ft 376 kts
2026-04-27 09:10 48.79514 17.52817 21692 ft 378 kts
2026-04-27 09:10 48.82126 17.53424 22307 ft 381 kts
2026-04-27 09:11 48.84763 17.54021 22933 ft 385 kts
2026-04-27 09:11 48.87416 17.54624 23588 ft 387 kts
2026-04-27 09:11 48.90083 17.55240 24139 ft 389 kts
2026-04-27 09:11 48.92771 17.55870 24635 ft 392 kts
2026-04-27 09:12 48.95476 17.56511 25132 ft 395 kts
2026-04-27 09:12 48.98195 17.57161 25616 ft 397 kts
2026-04-27 09:12 49.00922 17.57816 26092 ft 400 kts
2026-04-27 09:12 49.03678 17.58481 26565 ft 402 kts
2026-04-27 09:13 49.06451 17.59152 27027 ft 405 kts
2026-04-27 09:13 49.09239 17.59828 27504 ft 407 kts
2026-04-27 09:13 49.12041 17.60508 27964 ft 409 kts
2026-04-27 09:13 49.14859 17.61192 28396 ft 411 kts
2026-04-27 09:14 49.17697 17.61882 28813 ft 414 kts
2026-04-27 09:14 49.20549 17.62575 29230 ft 416 kts
2026-04-27 09:14 49.23418 17.63275 29631 ft 419 kts
2026-04-27 09:14 49.26297 17.63978 30099 ft 419 kts
2026-04-27 09:15 49.29165 17.64680 30679 ft 416 kts
2026-04-27 09:15 49.32013 17.65379 31243 ft 412 kts
2026-04-27 09:15 49.34835 17.66071 31691 ft 411 kts
2026-04-27 09:15 49.37625 17.66755 32036 ft 412 kts
2026-04-27 09:16 49.40463 17.67450 32406 ft 413 kts
2026-04-27 09:16 49.43297 17.68146 32851 ft 412 kts
2026-04-27 09:16 49.46114 17.68839 33297 ft 410 kts
2026-04-27 09:16 49.48935 17.69534 33683 ft 410 kts
2026-04-27 09:17 49.51756 17.70229 34088 ft 410 kts
2026-04-27 09:17 49.54567 17.70923 34483 ft 409 kts
2026-04-27 09:17 49.57373 17.71616 34819 ft 408 kts
2026-04-27 09:17 49.60185 17.72311 35030 ft 411 kts
2026-04-27 09:18 49.63018 17.73011 35207 ft 414 kts
2026-04-27 09:18 49.65869 17.73716 35426 ft 416 kts
2026-04-27 09:18 49.68724 17.74425 35711 ft 416 kts
2026-04-27 09:18 49.71576 17.75135 36044 ft 415 kts
2026-04-27 09:19 49.74423 17.75844 36320 ft 415 kts
2026-04-27 09:19 49.77277 17.76556 36563 ft 415 kts
2026-04-27 09:19 49.80128 17.77267 36834 ft 416 kts
2026-04-27 09:19 49.82984 17.77980 37094 ft 416 kts
2026-04-27 09:20 49.85845 17.78695 37287 ft 418 kts
2026-04-27 09:20 49.91632 17.80142 37262 ft 422 kts
2026-04-27 09:21 49.97392 17.81592 37281 ft 415 kts
2026-04-27 09:21 50.03054 17.83021 37275 ft 412 kts
2026-04-27 09:22 50.08705 17.84445 37277 ft 411 kts
2026-04-27 09:22 50.14347 17.85871 37281 ft 411 kts
2026-04-27 09:23 50.19988 17.87300 37301 ft 411 kts
2026-04-27 09:23 50.25633 17.88734 37288 ft 411 kts
2026-04-27 09:24 50.31293 17.90175 37283 ft 412 kts
2026-04-27 09:24 50.36959 17.91621 37285 ft 413 kts
2026-04-27 09:25 50.42596 17.93064 37314 ft 414 kts
2026-04-27 09:25 50.48288 17.94525 37292 ft 415 kts
2026-04-27 09:26 50.53987 17.95991 37290 ft 415 kts
2026-04-27 09:26 50.59694 17.97463 37289 ft 416 kts
2026-04-27 09:27 50.65404 17.98939 37309 ft 415 kts
2026-04-27 09:27 50.71110 18.00417 37291 ft 415 kts
2026-04-27 09:28 50.76809 18.01898 37285 ft 415 kts
2026-04-27 09:28 50.82500 18.03380 37288 ft 414 kts
2026-04-27 09:29 50.88179 18.04863 37319 ft 413 kts
2026-04-27 09:29 50.93849 18.06346 37295 ft 413 kts
2026-04-27 09:30 50.99511 18.07832 37286 ft 412 kts
2026-04-27 09:30 51.05154 18.09316 37290 ft 411 kts
2026-04-27 09:31 51.10790 18.10801 37291 ft 410 kts
2026-04-27 09:31 51.16424 18.12290 37289 ft 410 kts
2026-04-27 09:32 51.22055 18.13782 37295 ft 410 kts
2026-04-27 09:32 51.27685 18.15277 37291 ft 410 kts
2026-04-27 09:33 51.33310 18.16774 37290 ft 410 kts
2026-04-27 09:33 51.38942 18.18277 37298 ft 410 kts
2026-04-27 09:34 51.44579 18.19785 37291 ft 411 kts
2026-04-27 09:34 51.50219 18.21298 37287 ft 411 kts
2026-04-27 09:35 51.55864 18.22817 37292 ft 411 kts
2026-04-27 09:35 51.61511 18.24339 37296 ft 412 kts
2026-04-27 09:36 51.67168 18.25868 37285 ft 412 kts
2026-04-27 09:36 51.72824 18.27401 37288 ft 412 kts
2026-04-27 09:37 51.78446 18.28824 37292 ft 411 kts
2026-04-27 09:37 51.84114 18.30068 37298 ft 411 kts
2026-04-27 09:38 51.89785 18.31309 37279 ft 411 kts
2026-04-27 09:38 51.95447 18.32575 37282 ft 410 kts
2026-04-27 09:39 52.01095 18.33853 37274 ft 410 kts
2026-04-27 09:39 52.06748 18.35139 37277 ft 410 kts
2026-04-27 09:40 52.12394 18.36428 37271 ft 410 kts
2026-04-27 09:40 52.18034 18.37718 37277 ft 409 kts
2026-04-27 09:41 52.22721 18.38793 37275 ft 409 kts
2026-04-27 09:41 52.28373 18.40089 36897 ft 414 kts
2026-04-27 09:41 52.31213 18.40743 36474 ft 411 kts
2026-04-27 09:42 52.34042 18.41396 35924 ft 410 kts
2026-04-27 09:42 52.36870 18.42050 35350 ft 411 kts
2026-04-27 09:42 52.39707 18.42705 34768 ft 412 kts
2026-04-27 09:42 52.42549 18.43362 34144 ft 413 kts
2026-04-27 09:43 52.45405 18.44023 33429 ft 415 kts
2026-04-27 09:43 52.48254 18.44685 32937 ft 411 kts
2026-04-27 09:43 52.51074 18.45343 32461 ft 407 kts
2026-04-27 09:43 52.53867 18.45996 32014 ft 403 kts
2026-04-27 09:44 52.56635 18.46642 31592 ft 400 kts
2026-04-27 09:44 52.59378 18.47282 31135 ft 396 kts
2026-04-27 09:44 52.62095 18.47917 30709 ft 393 kts
2026-04-27 09:44 52.64793 18.48548 30272 ft 390 kts
2026-04-27 09:45 52.67467 18.49174 29764 ft 386 kts
2026-04-27 09:45 52.70114 18.49795 29320 ft 382 kts
2026-04-27 09:45 52.72726 18.50409 28875 ft 377 kts
2026-04-27 09:45 52.75313 18.51017 28437 ft 374 kts
2026-04-27 09:46 52.77880 18.51620 27994 ft 371 kts
2026-04-27 09:46 52.80431 18.52220 27565 ft 369 kts
2026-04-27 09:46 52.82959 18.52816 27120 ft 366 kts
2026-04-27 09:46 52.85464 18.53408 26691 ft 363 kts
2026-04-27 09:47 52.87955 18.53996 26265 ft 361 kts
2026-04-27 09:47 52.90444 18.54583 25845 ft 362 kts
2026-04-27 09:47 52.92940 18.55173 25422 ft 362 kts
2026-04-27 09:47 52.95421 18.55761 24998 ft 360 kts
2026-04-27 09:48 52.97891 18.56348 24570 ft 357 kts
2026-04-27 09:48 53.00343 18.56931 24151 ft 357 kts
2026-04-27 09:48 53.02792 18.57514 23725 ft 355 kts
2026-04-27 09:48 53.05225 18.58092 23267 ft 351 kts
2026-04-27 09:49 53.07627 18.58514 22920 ft 344 kts
2026-04-27 09:49 53.10002 18.58808 22516 ft 340 kts 359°
2026-04-27 09:49 53.12358 18.59065 22086 ft 338 kts 359°
2026-04-27 09:49 53.14695 18.59318 21689 ft 335 kts 359°
2026-04-27 09:50 53.17019 18.59577 21280 ft 334 kts 359°
2026-04-27 09:50 53.19327 18.59843 20878 ft 332 kts 360°
2026-04-27 09:50 53.21628 18.60115 20478 ft 331 kts 360°
2026-04-27 09:50 53.23918 18.60390 20083 ft 329 kts 360°
2026-04-27 09:51 53.26198 18.60668 19690 ft 328 kts
2026-04-27 09:51 53.28470 18.60947 19295 ft 327 kts
2026-04-27 09:51 53.30735 18.61226 18915 ft 326 kts
2026-04-27 09:51 53.32996 18.61506 18509 ft 325 kts
2026-04-27 09:52 53.35249 18.61786 18059 ft 324 kts
2026-04-27 09:52 53.37494 18.62066 17632 ft 322 kts
2026-04-27 09:52 53.39691 18.62340 17236 ft 320 kts
2026-04-27 09:52 53.41904 18.62617 16837 ft 318 kts
2026-04-27 09:53 53.44098 18.62892 16445 ft 315 kts
2026-04-27 09:53 53.46274 18.63164 16067 ft 312 kts
2026-04-27 09:53 53.48428 18.63435 15691 ft 310 kts
2026-04-27 09:53 53.50568 18.63703 15306 ft 307 kts
2026-04-27 09:54 53.52691 18.63970 14935 ft 305 kts
2026-04-27 09:54 53.54799 18.64235 14592 ft 303 kts
2026-04-27 09:54 53.56895 18.64498 14216 ft 301 kts
2026-04-27 09:54 53.58979 18.64759 13814 ft 299 kts
2026-04-27 09:55 53.61047 18.65020 13409 ft 297 kts
2026-04-27 09:55 53.63097 18.65279 13038 ft 294 kts
2026-04-27 09:55 53.67135 18.65790 12326 ft 289 kts
2026-04-27 09:56 53.69130 18.66041 11964 ft 287 kts
2026-04-27 09:56 53.71116 18.66292 11602 ft 285 kts
2026-04-27 09:56 53.73093 18.66542 11252 ft 284 kts
2026-04-27 09:56 53.75061 18.66791 10903 ft 284 kts
2026-04-27 09:57 53.77022 18.67040 10675 ft 279 kts
2026-04-27 09:57 53.78944 18.67286 10560 ft 276 kts
2026-04-27 09:57 53.80868 18.67529 10487 ft 275 kts
2026-04-27 09:57 53.82753 18.67771 10437 ft 267 kts
2026-04-27 09:58 53.84583 18.68007 10236 ft 262 kts
2026-04-27 09:58 53.86397 18.68237 9894 ft 261 kts
2026-04-27 09:58 53.88210 18.68468 9547 ft 261 kts
2026-04-27 09:58 53.90015 18.68697 9210 ft 260 kts
2026-04-27 09:59 53.91821 18.68925 8857 ft 260 kts
2026-04-27 09:59 53.93625 18.69156 8558 ft 259 kts
2026-04-27 09:59 53.95416 18.69385 8235 ft 258 kts
2026-04-27 09:59 53.97207 18.69615 7895 ft 258 kts
2026-04-27 10:00 53.98994 18.69844 7602 ft 257 kts
2026-04-27 10:00 54.00768 18.70072 7339 ft 256 kts
2026-04-27 10:00 54.02544 18.70301 7022 ft 256 kts
2026-04-27 10:00 54.04311 18.70528 6754 ft 254 kts
2026-04-27 10:01 54.06067 18.70753 6477 ft 253 kts
2026-04-27 10:01 54.07816 18.70978 6202 ft 251 kts
2026-04-27 10:01 54.09533 18.71202 5888 ft 251 kts
2026-04-27 10:01 54.11277 18.71427 5573 ft 251 kts
2026-04-27 10:02 54.13017 18.71652 5300 ft 250 kts
2026-04-27 10:02 54.14753 18.71877 5043 ft 249 kts
2026-04-27 10:02 54.16494 18.72101 4753 ft 248 kts
2026-04-27 10:02 54.18194 18.72320 4443 ft 248 kts
2026-04-27 10:03 54.19938 18.72546 4205 ft 247 kts
2026-04-27 10:03 54.21619 18.72767 4006 ft 243 kts
2026-04-27 10:03 54.23273 18.72982 3950 ft 234 kts
2026-04-27 10:03 54.24873 18.73191 3896 ft 227 kts
2026-04-27 10:04 54.26424 18.73393 3842 ft 220 kts
2026-04-27 10:04 54.27927 18.73587 3781 ft 213 kts
2026-04-27 10:04 54.29359 18.73774 3729 ft 200 kts
2026-04-27 10:04 54.30652 18.73377 3589 ft 184 kts 325°
2026-04-27 10:05 54.31397 18.71700 3445 ft 177 kts 298°
2026-04-27 10:05 54.31974 18.69849 3185 ft 176 kts 300°
2026-04-27 10:05 54.32506 18.67957 2939 ft 177 kts 296°
2026-04-27 10:05 54.33001 18.66037 2681 ft 175 kts 297°
2026-04-27 10:06 54.33469 18.64137 2450 ft 171 kts 293°
2026-04-27 10:06 54.33918 18.62263 2221 ft 170 kts 295°
2026-04-27 10:06 54.34371 18.60396 1975 ft 170 kts 296°
2026-04-27 10:06 54.34818 18.58564 1760 ft 163 kts 296°
2026-04-27 10:07 54.35242 18.56821 1566 ft 150 kts 297°
2026-04-27 10:07 54.35637 18.55230 1301 ft 140 kts 297°
2026-04-27 10:07 54.36009 18.53717 1110 ft 136 kts 297°
2026-04-27 10:07 54.36376 18.52222 931 ft 136 kts 296°
2026-04-27 10:08 54.36741 18.50741 742 ft 135 kts 295°
2026-04-27 10:08 54.37104 18.49259 536 ft 134 kts 295°
2026-04-27 10:08 54.37442 18.47895 470 ft 107 kts 293°
2026-04-27 10:08 54.37678 18.46941 453 ft 69 kts 293°
2026-04-27 10:09 54.37834 18.46320 457 ft 51 kts 293°
2026-04-27 10:09 54.37961 18.45911 455 ft 31 kts 309°
2026-04-27 10:09 54.38091 18.45719 453 ft 14 kts 330°
2026-04-27 10:09 54.38141 18.45785 454 ft 12 kts 97°
2026-04-27 10:10 54.38110 18.45918 457 ft 12 kts 113°
2026-04-27 10:10 54.38110 18.46049 457 ft 12 kts 51°
2026-04-27 10:10 54.38173 18.46128 459 ft 11 kts 60°
2026-04-27 10:10 54.38156 18.46254 458 ft 11 kts 113°
2026-04-27 10:11 54.38126 18.46374 458 ft 11 kts 113°
2026-04-27 10:11 54.38097 18.46491 459 ft 10 kts 112°
2026-04-27 10:11 54.38120 18.46553 457 ft 5 kts 24°
2026-04-27 10:11 54.38129 18.46559 459 ft 0 kts 24°